Weather History for Vacaville, CA

Change the Weather History Date:

Monday, May 6, 2013

  Actual Average Record
Temperature  
Mean Temperature 65 °F -  
Max Temperature 73 °F 78 °F 99 °F (1987)
Min Temperature 57 °F 46 °F 35 °F (1964)
Growing Degree Days 15 (Base 50)    
Moisture  
Dew Point 52 °F    
Average Humidity 71    
Maximum Humidity 94    
Minimum Humidity 46    
Precipitation  
Precipitation 0.26 in - - ()
Sea Level Pressure  
Sea Level Pressure 29.88 in    
Wind  
Wind Speed 4 mph (WSW)    
Max Wind Speed 12 mph    
Max Gust Speed 18 mph    
Visibility 9 miles    
Events Rain    
Averages and records for this station are not official NWS values.
T = Trace of Precipitation, MM = Missing Value Source: NWS Daily Summary

Daily Weather History Graph

Daily Weather History Graph

Search for Another Location

Airport:

Trip Planner

Search our weather history database for the weather conditions in past years. The results will help you decide how hot, cold, wet, or windy it might be!

Date:

Astronomy

May. 06, 2013 Rise Set
Actual Time 6:04 AM PDT 8:04 PM PDT
Civil Twilight 5:36 AM PDT 8:33 PM PDT
Nautical Twilight 5:00 AM PDT 9:08 PM PDT
Astronomical Twilight 4:22 AM PDT 9:47 PM PDT
Moon 4:07 AM PDT (5/6) 5:11 PM PDT (5/6)
Length of Visible Light 14h 57m
Length of Day
13h 59m
Waning Crescent, 10% of the Moon is Illuminated
May 6
Waning Crescent
May 9
New
May 17
First Quarter
May 24
Full
May 31
Last Quarter

Hourly Weather History & Observations

Time (PDT) Temp. Dew Point Humidity Pressure Visibility Wind Dir Wind Speed Gust Speed Precip Events Conditions
12:53 AM 63.0 °F 46.9 °F 56% 29.82 in 10.0 mi SSW 4.6 mph - N/A   Overcast
1:53 AM 63.0 °F 46.0 °F 54% 29.83 in 10.0 mi SSW 4.6 mph - N/A   Overcast
2:53 AM 62.1 °F 46.9 °F 58% 29.83 in 10.0 mi SSW 5.8 mph - N/A   Overcast
3:53 AM 61.0 °F 46.9 °F 60% 29.83 in 10.0 mi SSW 3.5 mph - N/A   Overcast
4:53 AM 61.0 °F 46.0 °F 58% 29.82 in 10.0 mi SW 5.8 mph - N/A   Mostly Cloudy
5:53 AM 61.0 °F 46.9 °F 60% 29.84 in 10.0 mi SSW 4.6 mph - N/A   Mostly Cloudy
6:53 AM 59.0 °F 48.0 °F 67% 29.86 in 10.0 mi Calm Calm - N/A   Overcast
7:53 AM 57.0 °F 50.0 °F 77% 29.88 in 10.0 mi ESE 3.5 mph - N/A   Overcast
8:53 AM 60.1 °F 51.1 °F 72% 29.89 in 10.0 mi Calm Calm - N/A   Clear
9:53 AM 62.1 °F 50.0 °F 65% 29.90 in 10.0 mi Calm Calm - N/A   Clear
10:53 AM 66.9 °F 48.9 °F 52% 29.91 in 10.0 mi Variable 3.5 mph - N/A   Clear
11:53 AM 70.0 °F 48.9 °F 47% 29.91 in 10.0 mi North 8.1 mph - N/A   Mostly Cloudy
12:53 PM 69.1 °F 51.1 °F 53% 29.89 in 10.0 mi NE 4.6 mph - N/A   Mostly Cloudy
1:53 PM 71.1 °F 51.1 °F 49% 29.88 in 10.0 mi Variable 4.6 mph - N/A   Mostly Cloudy
2:53 PM 73.0 °F 51.1 °F 46% 29.88 in 10.0 mi Variable 4.6 mph - N/A   Scattered Clouds
3:53 PM 64.9 °F 51.1 °F 61% 29.87 in 10.0 mi SW 11.5 mph 18.4 mph N/A   Overcast
4:36 PM 60.8 °F 55.4 °F 82% 29.87 in 1.8 mi West 4.6 mph - 0.08 in Rain Heavy Rain
4:46 PM 60.8 °F 55.4 °F 82% 29.87 in 3.0 mi WNW 5.8 mph - 0.11 in Rain Light Rain
4:53 PM 60.1 °F 55.0 °F 83% 29.88 in 10.0 mi NNW 6.9 mph - 0.11 in   Overcast
5:43 PM 57.2 °F 55.4 °F 94% 29.89 in 2.0 mi NW 9.2 mph - 0.06 in Rain Heavy Rain
5:53 PM 57.0 °F 54.0 °F 89% 29.89 in 7.0 mi NW 9.2 mph - 0.08 in Rain Light Rain
6:53 PM 57.9 °F 55.0 °F 90% 29.88 in 9.0 mi NW 5.8 mph - 0.07 in Rain Light Rain
7:53 PM 59.0 °F 55.0 °F 87% 29.90 in 10.0 mi SE 4.6 mph - 0.00 in   Overcast
8:53 PM 59.0 °F 57.0 °F 93% 29.92 in 10.0 mi WNW 3.5 mph - N/A   Overcast
9:53 PM 59.0 °F 57.0 °F 93% 29.96 in 10.0 mi East 3.5 mph - N/A   Overcast
10:53 PM 59.0 °F 55.9 °F 90% 29.96 in 10.0 mi Calm Calm - N/A   Overcast
11:53 PM 59.0 °F 55.0 °F 87% 29.96 in 10.0 mi Calm Calm - N/A   Overcast